Location: Recife
(8.0585°S, 34.8848°W)
Time: 21:36:25
(UTC-03:00)

A-11 Canister half - Pass Details

Date: 19 April 2026
Orbit: 1523 x 1685 km, 47.3° (Epoch: 12 May)

Event Time Altitude Azimuth Distance (km) Brightness Sun altitude
Rises 08:54:32 0° 316° (NW) 4,831 11.5 49.3°
Reaches altitude 10° 08:57:41 10° 315° (NW) 3,826 11.1 50.0°
Maximum altitude 09:07:23 77° 230° (SW) 1,611 9.8 52.0°
Drops below altitude 10° 09:16:49 10° 144° (SE) 3,721 11.2 54.0°
Sets 09:19:51 0° 142° (SE) 4,693 11.6 54.7°
